Location: U-46 Planetarium
(42.0300°N, 88.2740°W)
Time: 01:31:53
(UTC-05:00)

Gblst 52 Del rocket - Pass Details

Date: 16 December 2017
Orbit: 806 x 1365 km, 51.5° (Epoch: 21 July)

Event Time Altitude Azimuth Distance (km) Brightness Sun altitude
Rises 18:24:50 0° 304° (WNW) 3,348 8.0 -21.8°
Reaches altitude 10° 18:27:14 10° 305° (NW) 2,444 7.1 -22.2°
Maximum altitude 18:32:55 82° 33° (NNE) 901 4.2 -23.3°
Enters shadow 18:34:51 46° 115° (ESE) 1,208 4.6 -23.6°
